Change the Weather History Date:

Tuesday, May 14, 2013

  Actual Average Record
Temperature  
Mean Temperature 62 °F -  
Max Temperature 86 °F 63 °F 89 °F (2007)
Min Temperature 37 °F 42 °F 35 °F (1997)
Degree Days  
Heating Degree Days 4    
Growing Degree Days 12 (Base 50)    
Moisture  
Dew Point 40 °F    
Average Humidity 46    
Maximum Humidity 93    
Minimum Humidity 16    
Precipitation  
Precipitation 0.00 in - - ()
Sea Level Pressure  
Sea Level Pressure 29.63 in    
Wind  
Wind Speed 6 mph (SSE)    
Max Wind Speed 21 mph    
Max Gust Speed 29 mph    
Visibility 10 miles    
Events Rain    
Averages and records for this station are not official NWS values.
T = Trace of Precipitation, MM = Missing Value Source: NWS Daily Summary

Daily Weather History Graph

Daily Weather History Graph

Search for Another Location

Airport or City:

Trip Planner

Search our weather history database for the weather conditions in past years. The results will help you decide how hot, cold, wet, or windy it might be!

Date:

Astronomy

May. 14, 2013 Rise Set
Actual Time 5:37 AM CDT 8:29 PM CDT
Civil Twilight 5:03 AM CDT 9:04 PM CDT
Nautical Twilight 4:19 AM CDT 9:48 PM CDT
Astronomical Twilight 3:27 AM CDT 10:40 PM CDT
Moon 9:18 AM CDT (5/14) No Moon Set
Length of Visible Light 16h 01m
Length of Day
14h 52m
Waxing Crescent, 19% of the Moon is Illuminated
May 14
Waxing Crescent
May 17
First Quarter
May 24
Full
May 31
Last Quarter
Jun 8
New

Hourly Weather History & Observations

Time (CDT) Temp. Windchill Dew Point Humidity Pressure Visibility Wind Dir Wind Speed Gust Speed Precip Events Conditions
12:15 AM 51.8 °F - 33.8 °F 50% 29.71 in 10.0 mi SE 10.4 mph - N/A   Clear
12:35 AM 51.8 °F - 33.8 °F 50% 29.71 in 10.0 mi SE 9.2 mph - N/A   Clear
12:55 AM 51.8 °F - 35.6 °F 54% 29.70 in 10.0 mi ESE 6.9 mph - N/A   Clear
1:15 AM 50.0 °F - 35.6 °F 58% 29.70 in 10.0 mi ESE 4.6 mph - N/A   Clear
1:35 AM 50.0 °F - 35.6 °F 58% 29.70 in 10.0 mi SE 3.5 mph - N/A   Clear
1:55 AM 50.0 °F - 35.6 °F 58% 29.69 in 10.0 mi Calm Calm - N/A   Clear
2:15 AM 48.2 °F - 35.6 °F 62% 29.69 in 10.0 mi Calm Calm - N/A   Clear
2:35 AM 46.4 °F - 35.6 °F 66% 29.69 in 10.0 mi Calm Calm - N/A   Clear
2:55 AM 46.4 °F 45.2 °F 35.6 °F 66% 29.69 in 10.0 mi SE 3.5 mph - N/A   Clear
3:15 AM 44.6 °F - 35.6 °F 71% 29.69 in 10.0 mi Calm Calm - N/A   Clear
3:35 AM 44.6 °F - 35.6 °F 71% 29.69 in 10.0 mi Calm Calm - N/A   Clear
3:55 AM 42.8 °F - 35.6 °F 76% 29.69 in 10.0 mi Calm Calm - N/A   Clear
4:15 AM 41.0 °F - 35.6 °F 81% 29.68 in 10.0 mi Calm Calm - N/A   Clear
4:35 AM 41.0 °F - 35.6 °F 81% 29.69 in 10.0 mi Calm Calm - N/A   Clear
4:55 AM 39.2 °F - 35.6 °F 87% 29.69 in 10.0 mi Calm Calm - N/A   Clear
5:15 AM 39.2 °F - 35.6 °F 87% 29.69 in 10.0 mi Calm Calm - N/A   Clear
5:35 AM 37.4 °F - 35.6 °F 93% 29.70 in 10.0 mi Calm Calm - N/A   Clear
5:55 AM 37.4 °F - 35.6 °F 93% 29.70 in 10.0 mi Calm Calm - N/A   Clear
6:15 AM 39.2 °F - 35.6 °F 87% 29.70 in 10.0 mi Calm Calm - N/A   Clear
6:35 AM 41.0 °F - 37.4 °F 87% 29.70 in 10.0 mi Calm Calm - N/A   Clear
6:55 AM 44.6 °F - 37.4 °F 76% 29.70 in 10.0 mi Calm Calm - N/A   Clear
7:15 AM 46.4 °F - 37.4 °F 71% 29.70 in 10.0 mi Calm Calm - N/A   Clear
7:35 AM 51.8 °F - 39.2 °F 62% 29.69 in 10.0 mi ESE 4.6 mph - N/A   Clear
7:55 AM 53.6 °F - 41.0 °F 62% 29.69 in 10.0 mi SE 3.5 mph - N/A   Clear
8:15 AM 55.4 °F - 41.0 °F 58% 29.69 in 10.0 mi Calm Calm - N/A   Clear
8:35 AM 59.0 °F - 42.8 °F 55% 29.69 in 10.0 mi SE 4.6 mph - N/A   Clear
8:55 AM 60.8 °F - 42.8 °F 52% 29.71 in 10.0 mi SE 3.5 mph - N/A   Clear
9:15 AM 62.6 °F - 44.6 °F 52% 29.70 in 10.0 mi SE 4.6 mph - N/A   Clear
9:35 AM 62.6 °F - 44.6 °F 52% 29.70 in 10.0 mi SSE 5.8 mph - N/A   Clear
9:55 AM 62.6 °F - 44.6 °F 52% 29.71 in 10.0 mi SSE 4.6 mph - N/A   Clear
10:15 AM 64.4 °F - 44.6 °F 49% 29.73 in 10.0 mi Calm Calm - N/A   Clear
10:35 AM 64.4 °F - 44.6 °F 49% 29.76 in 10.0 mi Calm Calm - N/A   Clear
10:55 AM 64.4 °F - 44.6 °F 49% 29.79 in 10.0 mi WNW 3.5 mph - N/A Rain Light Rain
11:15 AM 62.6 °F - 46.4 °F 55% 29.81 in 10.0 mi North 5.8 mph - N/A   Light Drizzle
11:35 AM 62.6 °F - 50.0 °F 63% 29.79 in 10.0 mi Calm Calm - N/A   Scattered Clouds
11:55 AM 64.4 °F - 48.2 °F 56% 29.76 in 10.0 mi East 4.6 mph - N/A   Scattered Clouds
12:15 PM 68.0 °F - 50.0 °F 52% 29.72 in 10.0 mi ESE 10.4 mph - N/A   Clear
12:35 PM 68.0 °F - 46.4 °F 46% 29.68 in 10.0 mi ESE 13.8 mph - N/A   Clear
12:55 PM 69.8 °F - 46.4 °F 43% 29.65 in 10.0 mi East 11.5 mph 19.6 mph N/A   Clear
1:15 PM 71.6 °F - 46.4 °F 41% 29.63 in 10.0 mi ESE 11.5 mph - N/A   Clear
1:35 PM 75.2 °F - 44.6 °F 34% 29.62 in 10.0 mi ESE 11.5 mph - N/A   Clear
1:55 PM 77.0 °F - 41.0 °F 28% 29.60 in 10.0 mi SE 17.3 mph - N/A   Clear
2:15 PM 77.0 °F - 41.0 °F 28% 29.59 in 10.0 mi SE 17.3 mph 20.7 mph N/A   Clear
2:35 PM 78.8 °F - 41.0 °F 26% 29.59 in 10.0 mi SE 17.3 mph - N/A   Clear
2:55 PM 78.8 °F - 42.8 °F 28% 29.57 in 10.0 mi SSE 19.6 mph 25.3 mph N/A   Clear
3:15 PM 80.6 °F - 42.8 °F 26% 29.57 in 10.0 mi SE 13.8 mph - N/A   Clear
3:35 PM 80.6 °F - 42.8 °F 26% 29.55 in 10.0 mi SE 15.0 mph 21.9 mph N/A   Clear
3:55 PM 82.4 °F - 42.8 °F 25% 29.54 in 10.0 mi SSE 16.1 mph - N/A   Clear
4:15 PM 84.2 °F - 41.0 °F 22% 29.53 in 10.0 mi SSE 16.1 mph 20.7 mph N/A   Clear
4:35 PM 86.0 °F - 42.8 °F 22% 29.53 in 10.0 mi SSE 11.5 mph 21.9 mph N/A   Clear
4:55 PM 86.0 °F - 42.8 °F 22% 29.52 in 10.0 mi South 12.7 mph - N/A   Clear
5:15 PM 86.0 °F - 42.8 °F 22% 29.52 in 10.0 mi South 16.1 mph 19.6 mph N/A   Clear
5:35 PM 86.0 °F - 44.6 °F 23% 29.50 in 10.0 mi South 13.8 mph 18.4 mph N/A   Clear
5:55 PM 86.0 °F - 44.6 °F 23% 29.50 in 10.0 mi South 13.8 mph - N/A   Clear
6:15 PM 86.0 °F - 44.6 °F 23% 29.49 in 10.0 mi South 10.4 mph - N/A   Clear
6:35 PM 86.0 °F - 48.2 °F 27% 29.48 in 10.0 mi South 9.2 mph - N/A   Clear
6:55 PM 84.2 °F - 48.2 °F 29% 29.47 in 10.0 mi South 9.2 mph - N/A   Clear
7:15 PM 82.4 °F - 50.0 °F 32% 29.47 in 10.0 mi SSE 6.9 mph - N/A   Scattered Clouds
7:35 PM 80.6 °F - 50.0 °F 34% 29.46 in 10.0 mi South 5.8 mph - N/A   Clear
7:55 PM 82.4 °F - 46.4 °F 28% 29.47 in 10.0 mi WSW 10.4 mph - N/A   Clear
8:15 PM 82.4 °F - 32.0 °F 16% 29.48 in 10.0 mi West 15.0 mph 23.0 mph N/A   Clear
8:35 PM 82.4 °F - 32.0 °F 16% 29.50 in 10.0 mi West 20.7 mph 28.8 mph N/A   Clear
8:55 PM 78.8 °F - 35.6 °F 21% 29.52 in 10.0 mi West 13.8 mph 27.6 mph N/A   Clear
9:15 PM 77.0 °F - 32.0 °F 19% 29.54 in 10.0 mi West 12.7 mph 21.9 mph N/A   Clear
9:35 PM 77.0 °F - 32.0 °F 19% 29.56 in 10.0 mi WNW 16.1 mph 27.6 mph N/A   Clear
9:55 PM 73.4 °F - 32.0 °F 22% 29.57 in 10.0 mi West 17.3 mph 25.3 mph N/A   Clear
10:15 PM 73.4 °F - 32.0 °F 22% 29.58 in 10.0 mi West 11.5 mph 20.7 mph N/A   Clear
10:35 PM 69.8 °F - 32.0 °F 25% 29.59 in 10.0 mi West 8.1 mph - N/A   Clear
10:55 PM 69.8 °F - 33.8 °F 27% 29.59 in 10.0 mi WNW 5.8 mph - N/A   Clear
11:15 PM 66.2 °F - 33.8 °F 30% 29.60 in 10.0 mi WNW 4.6 mph - N/A   Clear
11:35 PM 64.4 °F - 33.8 °F 32% 29.61 in 10.0 mi WNW 5.8 mph - N/A   Clear
11:55 PM 68.0 °F - 37.4 °F 33% 29.62 in 10.0 mi West 15.0 mph 20.7 mph N/A   Clear